This demonstration page uses our WeatherBlox Daily Observations layout. Learn more.

Left ArrowRight Arrow

44.8408, -93.29828

Hourly Observations for May 1, 2015

Temp ( °F °C ) Dew Point ( °F °C ) Humidity (%) Winds ( mph kmh ) Pressure ( in mb ) Visibility ( mi km ) Precip ( " mm )
12:53 am 00:53 Clear 53 11.7 30 -1.1 41 41 SSE 7 11 30.05 1018 10 16 0.00 0.00
1:53 am 01:53 Clear 52 11.1 30 -1.1 43 43 SSE 9 15 30.05 1018 10 16 0.00 0.00
2:53 am 02:53 Clear 54 12.2 29 -1.7 38 38 S 10 17 30.05 1018 10 16 0.00 0.00
3:53 am 03:53 Clear 52 11.1 30 -1.1 43 43 S 6 9 30.06 1018 10 16 0.00 0.00
4:53 am 04:53 Mostly Cloudy 49 9.4 31 -0.6 50 50 ESE 5 7 30.06 1018 10 16 0.00 0.00
5:53 am 05:53 Mostly Cloudy 52 11.1 30 -1.1 43 43 S 5 7 30.07 1018 10 16 0.00 0.00
6:53 am 06:53 Mostly Cloudy 50 10 32 0 50 50 SE 3 6 30.08 1019 10 16 0.00 0.00
7:53 am 07:53 Mostly Cloudy 54 12.2 32 0 43 43 SSW 8 13 30.08 1019 10 16 0.00 0.00
8:53 am 08:53 Mostly Cloudy 56 13.3 33 0.6 42 42 SSW 5 7 30.08 1019 10 16 0.00 0.00
9:53 am 09:53 Mostly Cloudy 59 15 33 0.6 38 38 SSW 7 11 30.07 1018 10 16 0.00 0.00
10:53 am 10:53 Cloudy 61 16.1 36 2.2 39 39 SW 8 13 30.07 1018 10 16 0.00 0.00
11:53 am 11:53 Cloudy with Light Rain 57 13.9 46 7.8 67 67 SSW 9 15 30.07 1018 8 13 0.00 0.03
12:53 pm 12:53 Mostly Cloudy 58 14.4 49 9.4 72 72 Calm 30.06 1018 10 16 0.01 0.25
1:22 pm 13:22 Mostly Cloudy 61 16 52 11 72 72 S 14 22 30.03 1017 10 16 0.00 0.00
1:53 pm 13:53 Mostly Cloudy 58 14.4 50 10 75 75 S 10 17 30.05 1018 10 16 0.00 0.00
2:53 pm 14:53 Cloudy 59 15 49 9.4 69 69 SSE 10 17 30.03 1017 10 16 0.00 0.00
3:53 pm 15:53 Cloudy 61 16.1 49 9.4 65 65 S 13 20 30.01 1016 10 16 0.00 0.00
4:53 pm 16:53 Mostly Cloudy 63 17.2 48 8.9 58 58 SSE 13 20 29.98 1015 10 16 0.00 0.00
5:53 pm 17:53 Mostly Sunny 66 18.9 49 9.4 54 54 S 8 13 29.97 1015 10 16 0.00 0.00
6:53 pm 18:53 Mostly Sunny 64 18 28 -2 26 26 E 8 13 30.00 1016 10 16 0.00 0.00
7:53 pm 19:53 Mostly Sunny 65 18.3 48 8.9 54 54 SSE 9 15 29.96 1015 10 16 0.00 0.00
8:53 pm 20:53 Partly Cloudy 62 16.7 48 8.9 60 60 ESE 9 15 29.96 1015 10 16 0.00 0.00
9:53 pm 21:53 Mostly Clear 59 15 48 8.9 67 67 SE 9 15 29.97 1015 10 16 0.00 0.00
10:53 pm 22:53 Clear 57 13.9 48 8.9 72 72 SE 7 11 29.97 1015 10 16 0.00 0.00
11:53 pm 23:53 Clear 57 14 46 8 67 67 SSE 5 7 29.94 1014 10 16 0.00 0.00

Powered by AerisWeather